When you browse on this site, cookies collect data to enhance your experience and personalize the content and advertising you see.
Visit our Privacy Policy to learn more. By continuing to use the site, you agree to this use of cookies and data.
  • Em Portugal
  • Lista de países
  • Para 7 dias
  • Temperatura da água
  • Mapas de satélite
  • Mapa do tempo
  • Widgets de tempo
  • user-avatar
    Iniciar Sessão

    Previsão horária em Kaprun

    Hoje, 17 Janeiro, Quinta-feira

    Tempo Temperatura Precipitação Vento Pressão Humidade
    00:00 -8°C° 0 mm 3 m/s 590 mmHg 64%
    01:00 -8°C° 0 mm 3 m/s 590 mmHg 67%
    02:00 -9°C° 0 mm 3 m/s 589 mmHg 70%
    03:00 -9°C° 0 mm 3 m/s 589 mmHg 73%
    04:00 -9°C° 0 mm 3 m/s 589 mmHg 76%
    05:00 -9°C° 0 mm 3 m/s 589 mmHg 78%
    06:00 -10°C° 0 mm 3 m/s 588 mmHg 80%
    07:00 -10°C° 0 mm 3 m/s 588 mmHg 82%
    08:00 -9°C° 0 mm 3 m/s 588 mmHg 83%
    09:00 -8°C° 0 mm 3 m/s 589 mmHg 84%
    10:00 -7°C° 0 mm 3 m/s 589 mmHg 85%
    11:00 -6°C° 0 mm 3 m/s 589 mmHg 87%
    12:00 -5°C° 0 mm 3 m/s 589 mmHg 89%
    13:00 -3°C° 0 mm 2 m/s 589 mmHg 91%
    14:00 -4°C° 0 mm 2 m/s 589 mmHg 90%
    15:00 -4°C° 0 mm 2 m/s 589 mmHg 89%
    16:00 -5°C° 0 mm 2 m/s 588 mmHg 88%
    17:00 -6°C° 0.1 mm 2 m/s 588 mmHg 89%
    18:00 -6°C° 0.1 mm 1 m/s 588 mmHg 91%
    19:00 -7°C° 0.1 mm 1 m/s 588 mmHg 92%
    20:00 -7°C° 0.8 mm 1 m/s 588 mmHg 94%
    21:00 -7°C° 0.8 mm 2 m/s 588 mmHg 95%
    22:00 -7°C° 0.8 mm 2 m/s 588 mmHg 97%
    23:00 -8°C° 1.1 mm 2 m/s 588 mmHg 97%

    Amanhã, 18 Janeiro, Sexta-feira

    Tempo Temperatura Precipitação Vento Pressão Humidade
    00:00 -9°C° 1.1 mm 3 m/s 588 mmHg 97%
    01:00 -10°C° 1.1 mm 3 m/s 588 mmHg 97%
    02:00 -10°C° 0.6 mm 3 m/s 588 mmHg 97%
    03:00 -12°C° 0.6 mm 3 m/s 588 mmHg 97%
    04:00 -12°C° 0.6 mm 3 m/s 588 mmHg 97%
    05:00 -13°C° 0.1 mm 3 m/s 588 mmHg 96%
    06:00 -13°C° 0.1 mm 2 m/s 589 mmHg 96%
    07:00 -13°C° 0.1 mm 2 m/s 589 mmHg 95%
    08:00 -13°C° 0.1 mm 2 m/s 589 mmHg 94%
    09:00 -12°C° 0.1 mm 2 m/s 590 mmHg 94%
    10:00 -12°C° 0.1 mm 2 m/s 591 mmHg 93%
    11:00 -10°C° 0 mm 2 m/s 591 mmHg 91%
    12:00 -10°C° 0 mm 2 m/s 591 mmHg 89%
    13:00 -10°C° 0 mm 2 m/s 591 mmHg 87%
    14:00 -9°C° 0 mm 1 m/s 591 mmHg 88%
    15:00 -10°C° 0 mm 1 m/s 590 mmHg 89%
    16:00 -10°C° 0 mm 1 m/s 590 mmHg 90%
    17:00 -12°C° 0 mm 1 m/s 590 mmHg 90%
    18:00 -13°C° 0 mm 1 m/s 589 mmHg 89%
    19:00 -14°C° 0 mm 1 m/s 589 mmHg 88%
    20:00 -16°C° 0 mm 2 m/s 589 mmHg 86%
    21:00 -15°C° 0 mm 2 m/s 589 mmHg 84%
    22:00 -15°C° 0 mm 2 m/s 590 mmHg 82%
    23:00 -15°C° 0 mm 2 m/s 590 mmHg 82%

    Depois de amanhã, 19 Janeiro, Sábado

    Tempo Temperatura Precipitação Vento Pressão Humidade
    00:00 -15°C° 0 mm 2 m/s 590 mmHg 82%
    01:00 -15°C° 0 mm 2 m/s 589 mmHg 83%
    02:00 -15°C° 0 mm 2 m/s 589 mmHg 84%
    03:00 -15°C° 0 mm 2 m/s 589 mmHg 85%
    04:00 -15°C° 0 mm 2 m/s 589 mmHg 86%
    05:00 -15°C° 0 mm 2 m/s 589 mmHg 85%
    06:00 -15°C° 0 mm 2 m/s 588 mmHg 85%
    07:00 -13°C° 0 mm 1 m/s 588 mmHg 84%
    08:00 -11°C° 0 mm 1 m/s 589 mmHg 84%
    09:00 -10°C° 0 mm 1 m/s 589 mmHg 83%
    10:00 -8°C° 0 mm 1 m/s 590 mmHg 83%
    11:00 -7°C° 0 mm 1 m/s 590 mmHg 81%
    12:00 -6°C° 0 mm 1 m/s 590 mmHg 79%
    13:00 -5°C° 0 mm 0 m/s 590 mmHg 78%
    14:00 -6°C° 0 mm 0 m/s 590 mmHg 82%
    15:00 -7°C° 0 mm 0 m/s 589 mmHg 86%
    16:00 -8°C° 0 mm 0 m/s 588 mmHg 91%
    17:00 -9°C° 0 mm 1 m/s 588 mmHg 90%
    18:00 -10°C° 0 mm 1 m/s 588 mmHg 89%
    19:00 -12°C° 0 mm 1 m/s 587 mmHg 88%
    20:00 -12°C° 0 mm 1 m/s 587 mmHg 86%
    21:00 -14°C° 0 mm 2 m/s 587 mmHg 84%
    22:00 -15°C° 0 mm 2 m/s 587 mmHg 82%
    23:00 -15°C° 0 mm 2 m/s 587 mmHg 80%

    20 Janeiro, Domingo

    Tempo Temperatura Precipitação Vento Pressão Humidade
    00:00 -15°C° 0 mm 2 m/s 587 mmHg 77%
    01:00 -15°C° 0 mm 2 m/s 587 mmHg 75%
    02:00 -15°C° 0 mm 2 m/s 587 mmHg 73%
    03:00 -15°C° 0 mm 2 m/s 587 mmHg 72%
    04:00 -13°C° 0 mm 1 m/s 587 mmHg 70%
    05:00 -12°C° 0 mm 1 m/s 587 mmHg 69%
    06:00 -12°C° 0 mm 1 m/s 587 mmHg 68%
    07:00 -12°C° 0 mm 1 m/s 587 mmHg 67%
    08:00 -10°C° 0 mm 1 m/s 588 mmHg 69%
    09:00 -9°C° 0 mm 1 m/s 589 mmHg 70%
    10:00 -7°C° 0 mm 1 m/s 590 mmHg 72%
    11:00 -7°C° 0 mm 1 m/s 590 mmHg 71%
    12:00 -6°C° 0 mm 1 m/s 590 mmHg 71%
    13:00 -5°C° 0 mm 0 m/s 590 mmHg 70%
    14:00 -6°C° 0 mm 1 m/s 590 mmHg 77%
    15:00 -6°C° 0 mm 1 m/s 590 mmHg 84%
    16:00 -7°C° 0 mm 1 m/s 589 mmHg 91%
    17:00 -8°C° 0.1 mm 1 m/s 589 mmHg 91%
    18:00 -9°C° 0.1 mm 1 m/s 589 mmHg 92%
    19:00 -10°C° 0.1 mm 0 m/s 589 mmHg 92%
    20:00 -10°C° 0.1 mm 0 m/s 590 mmHg 92%
    21:00 -10°C° 0.1 mm 0 m/s 590 mmHg 92%
    22:00 -10°C° 0.1 mm 0 m/s 591 mmHg 92%
    23:00 -10°C° 0.2 mm 0 m/s 591 mmHg 93%

    21 Janeiro, Segunda-feira

    Tempo Temperatura Precipitação Vento Pressão Humidade
    00:00 -10°C° 0.2 mm 0 m/s 591 mmHg 93%
    01:00 -10°C° 0.2 mm 0 m/s 591 mmHg 94%
    02:00 -10°C° 0.2 mm 0 m/s 591 mmHg 94%
    03:00 -10°C° 0.2 mm 1 m/s 591 mmHg 94%
    04:00 -10°C° 0.2 mm 1 m/s 591 mmHg 94%
    05:00 -10°C° 0.1 mm 1 m/s 591 mmHg 94%
    06:00 -10°C° 0.1 mm 1 m/s 591 mmHg 94%
    07:00 -10°C° 0.1 mm 1 m/s 591 mmHg 95%
    08:00 -10°C° 0.1 mm 1 m/s 591 mmHg 94%
    09:00 -9°C° 0.1 mm 1 m/s 592 mmHg 93%
    10:00 -8°C° 0.1 mm 1 m/s 593 mmHg 92%
    11:00 -8°C° 0.1 mm 1 m/s 592 mmHg 92%
    12:00 -7°C° 0.1 mm 1 m/s 592 mmHg 91%
    13:00 -7°C° 0.1 mm 1 m/s 592 mmHg 90%
    14:00 -7°C° 0.1 mm 1 m/s 592 mmHg 91%
    15:00 -7°C° 0.1 mm 1 m/s 592 mmHg 92%
    16:00 -9°C° 0.1 mm 2 m/s 591 mmHg 94%
    17:00 -8°C° 0.1 mm 1 m/s 591 mmHg 95%
    18:00 -9°C° 0.1 mm 1 m/s 591 mmHg 96%
    19:00 -10°C° 0.1 mm 1 m/s 591 mmHg 97%
    20:00 -10°C° 0.1 mm 1 m/s 591 mmHg 97%
    21:00 -11°C° 0.1 mm 1 m/s 590 mmHg 96%
    22:00 -11°C° 0.1 mm 1 m/s 590 mmHg 96%
    23:00 -12°C° 0.1 mm 1 m/s 590 mmHg 96%

    22 Janeiro, Terça-feira

    Tempo Temperatura Precipitação Vento Pressão Humidade
    00:00 -12°C° 0.1 mm 1 m/s 589 mmHg 95%
    01:00 -13°C° 0.1 mm 1 m/s 588 mmHg 95%
    02:00 -13°C° 0.2 mm 1 m/s 588 mmHg 95%
    03:00 -13°C° 0.2 mm 1 m/s 588 mmHg 95%
    04:00 -13°C° 0.2 mm 1 m/s 587 mmHg 94%
    05:00 -13°C° 0.1 mm 1 m/s 587 mmHg 94%
    06:00 -13°C° 0.1 mm 1 m/s 586 mmHg 94%
    07:00 -13°C° 0.1 mm 1 m/s 586 mmHg 94%
    08:00 -13°C° 0.1 mm 1 m/s 586 mmHg 94%
    09:00 -12°C° 0.1 mm 1 m/s 586 mmHg 93%
    10:00 -11°C° 0.1 mm 1 m/s 586 mmHg 92%
    11:00 -10°C° 0.1 mm 1 m/s 585 mmHg 91%
    12:00 -10°C° 0.1 mm 1 m/s 585 mmHg 91%
    13:00 -9°C° 0.1 mm 1 m/s 584 mmHg 91%
    14:00 -9°C° 0.1 mm 1 m/s 584 mmHg 92%
    15:00 -10°C° 0.1 mm 1 m/s 583 mmHg 93%
    16:00 -10°C° 0.1 mm 1 m/s 582 mmHg 93%
    17:00 -11°C° 0 mm 1 m/s 581 mmHg 92%
    18:00 -12°C° 0 mm 1 m/s 581 mmHg 91%
    19:00 -15°C° 0 mm 2 m/s 580 mmHg 90%
    20:00 -15°C° 0 mm 2 m/s 580 mmHg 89%
    21:00 -15°C° 0 mm 2 m/s 579 mmHg 88%
    22:00 -17°C° 0 mm 3 m/s 579 mmHg 87%
    23:00 -17°C° 0 mm 3 m/s 579 mmHg 87%
    Mostrar mais